[[{"header":{"parameterUnit":"m.s-1","parameterCategory":1,"la1":30.2991,"la2":30.254,"lo1":-89.0895,"lo2":-89.0444,"dy":0.0017,"dx":0.0017,"nx":28,"ny":28,"refTime":"2025-06-06T09:00:00:Z","depth":0,"parameterNumber":2,"parameterNumberName":"U-component_of_WINDS"},"data":[0,0,0,0,0,0,0,0,0,0,0,0,0,0,0,0,0,0,0,0,0,0,0,0,0,0,0,0,0,0,0,0,0,0,0,0,0,0,0,0,0,0,0,0,0,0,0,0,0,0,0,0,0,0,0,0,0,0,2.4192,2.4192,0,2.4218,2.4218,2.4218,2.4227,2.4227,2.4227,2.4227,2.4254,2.4255,2.4256,0,0,0,0,0,0,0,0,0,0,0,0,0,2.4153,2.4154,2.4192,2.4193,2.4193,2.4218,2.4218,2.4218,2.4227,2.4227,2.4227,2.4227,2.4254,2.4255,2.4256,0,0,0,0,0,0,0,0,0,0,0,0,0,2.4173,2.4154,2.4192,2.42,2.4201,2.4217,2.4218,2.4218,2.4227,2.4227,2.4227,2.4227,2.4253,2.4255,2.4256,2.4266,0,0,2.426,2.426,0,0,0,0,0,0,0,0,2.4172,2.4175,2.4199,2.42,2.4201,2.4219,2.4214,2.4234,2.4227,2.4218,2.4227,2.4227,2.4243,2.4245,2.425,2.4267,2.4268,2.426,2.426,2.4261,2.4261,0,0,0,0,0,0,0,2.4171,2.4174,2.4202,2.4199,2.42,2.4203,2.4206,2.4218,2.4231,2.4218,2.4219,2.4222,2.4243,2.4249,2.425,2.4269,2.426,2.4261,2.4261,2.4262,2.4297,2.4297,0,0,0,0,0,0,2.4168,2.4172,2.4201,2.4203,2.4186,2.4204,2.4207,2.4213,2.423,2.4233,2.4222,2.4222,2.4247,2.4249,2.4251,2.4265,2.4261,2.4262,2.4263,2.4296,2.4297,2.4297,0,0,0,0,0,0,2.4167,2.417,2.42,2.4188,2.4192,2.4205,2.4212,2.4214,2.4219,2.4233,2.4236,2.4225,2.4247,2.425,2.4262,2.4266,2.4263,2.4264,2.4296,2.4296,2.4297,2.4291,0,0,0,0,0,0,2.4166,2.417,2.4174,2.4188,2.4193,2.421,2.4212,2.4215,2.4221,2.4222,2.4237,2.4239,2.4247,2.4261,2.4264,2.4267,2.4265,2.4296,2.4296,2.4297,2.4291,2.4291,2.4292,0,0,0,0,0,2.4164,2.4171,2.4174,2.4177,2.4197,2.4211,2.4213,2.4222,2.4222,2.4226,2.4235,2.4239,2.4265,2.4262,2.4265,2.427,2.4296,2.4296,2.4297,2.4291,2.4291,2.4292,0,0,0,0,0,0,2.4157,2.4173,2.4176,2.4188,2.4198,2.4212,2.4217,2.4222,2.4232,2.4232,2.4242,2.4246,2.4258,2.4265,2.4261,2.4281,2.4281,2.4282,2.4275,2.4276,2.4276,2.4274,2.4266,0,0,0,0,0,2.4157,2.4166,2.418,2.4189,2.4193,2.4205,2.4211,2.4216,2.4227,2.4231,2.4241,2.4252,2.4263,2.427,2.428,2.4292,2.4296,2.4297,2.4297,2.4297,2.4298,2.4306,2.4306,2.4298,2.4298,2.4298,0,0,2.4156,2.4166,2.4171,2.4187,2.4196,2.4205,2.4208,2.4218,2.4225,2.4233,2.4246,2.4253,2.4266,2.4278,2.4284,2.4285,2.4301,2.4298,2.4298,2.4299,2.4306,2.4307,2.4308,2.4299,2.4298,2.4298,0,0,2.416,2.4169,2.4177,2.4186,2.4198,2.4206,2.4208,2.4222,2.4227,2.424,2.4246,2.4255,2.4273,2.4282,2.4289,2.4297,2.4301,2.43,2.4301,2.4308,2.4308,2.4309,2.4312,2.4313,2.4301,2.4301,2.4301,0,2.4158,2.4173,2.4181,2.4191,2.4198,2.4205,2.4214,2.4222,2.4238,2.4243,2.4243,2.4266,2.4275,2.429,2.4292,2.4297,2.43,2.4298,2.4308,2.4308,2.4309,2.4312,2.4313,2.4301,2.4301,2.4301,2.4301,0,2.417,2.418,2.4185,2.42,2.4207,2.4217,2.4227,2.4234,2.4239,2.4247,2.426,2.4271,2.4284,2.4288,2.4293,2.4304,2.4303,2.4305,2.4306,2.4309,2.4313,2.4314,2.43,2.43,2.43,2.43,0,0,2.417,2.4189,2.4191,2.4198,2.4213,2.4221,2.4231,2.4243,2.4249,2.426,2.4269,2.4284,2.4286,2.4294,2.43,2.4306,2.4312,2.4307,2.4308,2.4308,2.4325,2.4324,2.4325,2.4315,2.4315,2.4316,2.4324,0,2.4176,2.4194,2.4202,2.4216,2.4226,2.4233,2.4242,2.4252,2.4259,2.4269,2.4277,2.4288,2.4289,2.4294,2.4301,2.431,2.4316,2.4309,2.4324,2.4324,2.432,2.4326,2.4325,2.4332,2.4325,2.4326,2.4326,0,2.4186,2.4196,2.4211,2.4225,2.4229,2.4237,2.4249,2.4258,2.427,2.4275,2.4284,2.429,2.4301,2.4301,2.4316,2.4312,2.4318,2.4324,2.4324,2.4326,2.4325,2.4329,2.4335,2.4336,2.4328,2.4327,2.4327,0,2.4184,2.4202,2.4214,2.4219,2.4236,2.4241,2.4248,2.426,2.4267,2.4278,2.4283,2.4295,2.4302,2.4312,2.4321,2.432,2.4336,2.4336,2.4341,2.4341,2.4344,2.4344,2.4352,2.4348,2.4348,2.4348,2.4348,0,2.4191,2.42,2.4214,2.4221,2.4231,2.4241,2.4251,2.4259,2.4269,2.4278,2.4285,2.4294,2.4305,2.4315,2.4323,2.4335,2.4338,2.4343,2.4344,2.4342,2.4341,2.4346,2.4346,2.4348,2.4348,2.4348,2.4348,0,2.4191,2.4201,2.4214,2.4228,2.4232,2.4239,2.4252,2.4259,2.4267,2.4278,2.4282,2.4294,2.4306,2.4317,2.4333,2.4338,2.435,2.4353,2.4346,2.4347,2.4351,2.4351,2.4363,2.4365,2.436,2.436,2.436,0,2.4194,2.4202,2.4217,2.4223,2.423,2.4241,2.4248,2.4258,2.4265,2.428,2.4285,2.4298,2.4309,2.4328,2.4339,2.4351,2.4354,2.4357,2.4356,2.4353,2.4354,2.4354,2.4355,2.4357,2.4357,2.4357,2.4357,0,2.4199,2.4204,2.4214,2.4226,2.4235,2.4245,2.4255,2.426,2.4272,2.428,2.4293,2.4301,2.4317,2.433,2.4343,2.4351,2.4356,2.4358,2.4359,2.4357,2.4353,2.4356,2.4347,2.4357,2.4357,2.4357,2.4357,2.4357,2.4202,2.4208,2.422,2.4232,2.4241,2.425,2.4258,2.4267,2.4277,2.4291,2.4296,2.4309,2.4321,2.434,2.4348,2.4359,2.4359,2.4362,2.4362,2.4363,2.4363,2.4351,2.4361,2.4361,2.4361,2.4361,2.4361,0,2.4207,2.4215,2.4226,2.424,2.4249,2.4253,2.4264,2.4272,2.4283,2.4294,2.4304,2.4319,2.4331,2.4343,2.4356,2.4362,2.4365,2.4365,2.4365,2.4367,2.4361,2.4358,2.4363,2.4363,2.4363,2.4363,2.4363,2.4363,2.4211,2.4223,2.4229,2.4246,2.4254,2.4266,2.4273,2.4282,2.429,2.4306,2.4316,2.4324,2.4335,2.4349,2.4361,2.4364,2.4369,2.4369,2.4372,2.4367,2.4367,2.4367,2.4364,2.4369,2.4369,2.4377,2.4377,2.4377]},{"header":{"parameterUnit":"m.s-1","parameterCategory":1,"la1":30.2991,"la2":30.254,"lo1":-89.0895,"lo2":-89.0444,"dy":0.0017,"dx":0.0017,"nx":28,"ny":28,"refTime":"2025-06-06T09:00:00:Z","depth":0,"parameterNumber":3,"parameterNumberName":"V-component_of_WINDS"},"data":[0,0,0,0,0,0,0,0,0,0,0,0,0,0,0,0,0,0,0,0,0,0,0,0,0,0,0,0,0,0,0,0,0,0,0,0,0,0,0,0,0,0,0,0,0,0,0,0,0,0,0,0,0,0,0,0,0,0,1.3845,1.3844,0,1.3803,1.3803,1.3802,1.3754,1.3754,1.3753,1.3752,1.3709,1.3709,1.3708,0,0,0,0,0,0,0,0,0,0,0,0,0,1.3881,1.3881,1.3845,1.3844,1.3844,1.3803,1.3803,1.3802,1.3754,1.3753,1.3753,1.3752,1.371,1.3709,1.3708,0,0,0,0,0,0,0,0,0,0,0,0,0,1.3855,1.3881,1.3845,1.3815,1.3812,1.3803,1.3803,1.3802,1.3755,1.3753,1.3752,1.3751,1.371,1.3709,1.3708,1.3726,0,0,1.3706,1.3706,0,0,0,0,0,0,0,0,1.3857,1.3854,1.382,1.3817,1.3814,1.3783,1.38,1.3776,1.3755,1.3776,1.3752,1.3751,1.3735,1.3732,1.3726,1.3724,1.3722,1.3706,1.3706,1.3705,1.3705,0,0,0,0,0,0,0,1.3859,1.3855,1.3828,1.382,1.3816,1.3803,1.3798,1.3795,1.3762,1.3774,1.3771,1.3767,1.3733,1.3727,1.3725,1.3721,1.3706,1.3706,1.3705,1.3705,1.3727,1.3728,0,0,0,0,0,0,1.3865,1.3857,1.383,1.3827,1.3833,1.3803,1.3798,1.3794,1.3762,1.3756,1.3768,1.3764,1.3729,1.3726,1.3723,1.3739,1.3705,1.3705,1.3704,1.3726,1.3728,1.3729,0,0,0,0,0,0,1.3866,1.3863,1.3831,1.3841,1.3836,1.3804,1.38,1.3794,1.3788,1.3757,1.3751,1.3768,1.3728,1.3724,1.3725,1.3737,1.3704,1.3704,1.3725,1.3727,1.3728,1.3773,0,0,0,0,0,0,1.3867,1.3864,1.3871,1.3842,1.3836,1.3834,1.3801,1.3794,1.3787,1.3783,1.3756,1.375,1.3727,1.3726,1.3724,1.3736,1.3703,1.3724,1.3726,1.3728,1.377,1.3776,1.3781,0,0,0,0,0,1.3869,1.3886,1.3871,1.3868,1.3844,1.3835,1.3832,1.3805,1.3788,1.3794,1.3774,1.3751,1.3736,1.3726,1.3724,1.3736,1.3723,1.3725,1.3727,1.3768,1.3775,1.3781,0,0,0,0,0,0,1.3917,1.3881,1.3865,1.3873,1.3857,1.3827,1.3834,1.3813,1.3802,1.3798,1.3765,1.3759,1.3763,1.3749,1.3739,1.3749,1.3726,1.3728,1.3758,1.3764,1.3769,1.3772,1.3703,0,0,0,0,0,1.3929,1.3925,1.3894,1.3904,1.3897,1.3867,1.3862,1.3842,1.3825,1.3818,1.3798,1.3781,1.3772,1.3768,1.3758,1.3768,1.3761,1.3775,1.378,1.3785,1.3786,1.3788,1.3793,1.3736,1.3736,1.3736,0,0,1.3953,1.3933,1.3933,1.3913,1.3899,1.3895,1.3862,1.386,1.3856,1.3818,1.3816,1.3801,1.378,1.3784,1.3786,1.3773,1.38,1.3787,1.3791,1.3791,1.3791,1.3796,1.3801,1.3738,1.3737,1.3737,0,0,1.3994,1.398,1.3985,1.3971,1.3949,1.3929,1.393,1.3902,1.389,1.3888,1.3859,1.3854,1.384,1.3826,1.3817,1.385,1.3828,1.3848,1.3876,1.3878,1.3882,1.3886,1.3896,1.39,1.385,1.385,1.385,0,1.4027,1.402,1.3991,1.399,1.3981,1.3946,1.395,1.3938,1.3914,1.3909,1.3895,1.3876,1.386,1.3859,1.3867,1.3861,1.3861,1.3851,1.3884,1.3887,1.389,1.39,1.3904,1.3853,1.3853,1.3852,1.3852,0,1.406,1.4056,1.4063,1.404,1.4032,1.4034,1.4004,1.4,1.398,1.3961,1.3958,1.3937,1.3921,1.392,1.3901,1.3916,1.3909,1.389,1.3866,1.3899,1.3907,1.391,1.3856,1.3856,1.3855,1.3854,0,0,1.4132,1.4092,1.4094,1.4083,1.4055,1.4051,1.405,1.4034,1.403,1.4015,1.4012,1.4001,1.3982,1.3972,1.3951,1.3953,1.3979,1.3934,1.3933,1.3942,1.3991,1.4005,1.4009,1.3964,1.3965,1.3965,1.3992,0,1.4167,1.4164,1.4137,1.4141,1.4135,1.4101,1.41,1.4082,1.4064,1.4056,1.4035,1.4026,1.4004,1.3997,1.3998,1.3976,1.3988,1.3973,1.396,1.396,1.3966,1.4014,1.4029,1.4056,1.3996,1.3996,1.3997,0,1.4209,1.4194,1.4198,1.4168,1.4165,1.4165,1.4147,1.414,1.4119,1.4105,1.4092,1.4068,1.4064,1.4042,1.4035,1.4025,1.4018,1.4006,1.4007,1.4004,1.398,1.4011,1.4064,1.4068,1.4002,1.4001,1.4001,0,1.4258,1.424,1.424,1.4231,1.4197,1.4197,1.4183,1.416,1.4152,1.4136,1.413,1.4114,1.4105,1.4093,1.4065,1.4052,1.406,1.4036,1.4047,1.4048,1.4051,1.4051,1.4102,1.4048,1.4048,1.4048,1.4048,0,1.43,1.4303,1.4261,1.4261,1.4263,1.423,1.4233,1.4215,1.4195,1.4189,1.4159,1.4154,1.4117,1.4108,1.4086,1.4082,1.4079,1.4067,1.4061,1.4069,1.407,1.4063,1.406,1.4049,1.4049,1.4048,1.4048,0,1.4356,1.4328,1.4325,1.4292,1.4284,1.4286,1.4258,1.4255,1.4234,1.4228,1.4224,1.4191,1.4178,1.4149,1.4129,1.4113,1.4115,1.4105,1.4122,1.4118,1.413,1.4129,1.4178,1.4182,1.4127,1.4127,1.4128,0,1.4384,1.4386,1.4353,1.4347,1.4333,1.4324,1.4315,1.4283,1.4274,1.4249,1.4249,1.4234,1.422,1.4201,1.4174,1.4158,1.4146,1.4164,1.4144,1.4151,1.4145,1.4145,1.4144,1.4169,1.417,1.417,1.4171,0,1.4436,1.4422,1.441,1.4393,1.4383,1.4368,1.4351,1.4348,1.4311,1.4303,1.4289,1.4279,1.4257,1.4241,1.4221,1.4205,1.4181,1.4178,1.4179,1.4187,1.4197,1.419,1.4133,1.4177,1.4176,1.4176,1.4175,1.4175,1.4478,1.4477,1.4453,1.444,1.4424,1.4408,1.4404,1.4382,1.437,1.435,1.4331,1.4319,1.4295,1.4264,1.425,1.4239,1.4227,1.423,1.423,1.4231,1.4234,1.4199,1.4235,1.4235,1.4235,1.4235,1.4234,0,1.4527,1.4509,1.4498,1.4475,1.4465,1.4443,1.4423,1.4416,1.4405,1.4385,1.4371,1.4355,1.4339,1.4311,1.4292,1.4289,1.4277,1.4285,1.4284,1.4281,1.4246,1.4246,1.4294,1.4294,1.4294,1.4294,1.4294,1.4294,1.4551,1.4547,1.453,1.4517,1.4499,1.4487,1.4477,1.4462,1.4445,1.4428,1.4415,1.4396,1.4372,1.4352,1.4336,1.4328,1.4322,1.4332,1.4321,1.4289,1.4284,1.4278,1.4278,1.4332,1.4332,1.4356,1.4356,1.4356]}]]